Year,Month,Day,Hour,Minute,Value (Times are PST for temperature in C)
2009,05,28,00,00,10.20
2009,05,28,00,01,10.20
2009,05,28,00,02,10.20
2009,05,28,00,03,10.20
2009,05,28,00,04,10.20
2009,05,28,00,05,10.10
2009,05,28,00,06,10.10
2009,05,28,00,07,10.10
2009,05,28,00,08,10.00
2009,05,28,00,09,10.00
2009,05,28,00,10,10.00
2009,05,28,00,11,9.90
2009,05,28,00,12,9.90
2009,05,28,00,13,9.80
2009,05,28,00,14,9.80
2009,05,28,00,15,9.80
2009,05,28,00,16,9.80
2009,05,28,00,17,9.80
2009,05,28,00,18,9.70
2009,05,28,00,19,9.70
2009,05,28,00,20,9.70
2009,05,28,00,21,9.70
2009,05,28,00,22,9.70
2009,05,28,00,23,9.70
2009,05,28,00,24,9.70
2009,05,28,00,25,9.70
2009,05,28,00,26,9.70
2009,05,28,00,27,9.70
2009,05,28,00,28,9.70
2009,05,28,00,29,9.70
2009,05,28,00,30,9.70
2009,05,28,00,31,9.60
2009,05,28,00,32,9.60
2009,05,28,00,33,9.60
2009,05,28,00,34,9.60
2009,05,28,00,35,9.60
2009,05,28,00,36,9.60
2009,05,28,00,37,9.60
2009,05,28,00,38,9.60
2009,05,28,00,39,9.50
2009,05,28,00,40,9.50
2009,05,28,00,41,9.50
2009,05,28,00,42,9.40
2009,05,28,00,43,9.40
2009,05,28,00,44,9.40
2009,05,28,00,45,9.40
2009,05,28,00,46,9.40
2009,05,28,00,47,9.40
2009,05,28,00,48,9.40
2009,05,28,00,49,9.30
2009,05,28,00,50,9.30
2009,05,28,00,51,9.30
2009,05,28,00,52,9.30
2009,05,28,00,53,9.40
2009,05,28,00,54,9.40
2009,05,28,00,55,9.40
2009,05,28,00,56,9.40
2009,05,28,00,57,9.40
2009,05,28,00,58,9.40
2009,05,28,00,59,9.40
2009,05,28,01,00,9.50
2009,05,28,01,01,9.50
2009,05,28,01,02,9.60
2009,05,28,01,03,9.60
2009,05,28,01,04,9.60
2009,05,28,01,05,9.60
2009,05,28,01,06,9.60
2009,05,28,01,07,9.60
2009,05,28,01,08,9.60
2009,05,28,01,09,9.60
2009,05,28,01,10,9.50
2009,05,28,01,11,9.50
2009,05,28,01,12,9.50
2009,05,28,01,13,9.50
2009,05,28,01,14,9.50
2009,05,28,01,15,9.40
2009,05,28,01,16,9.40
2009,05,28,01,17,9.40
2009,05,28,01,18,9.40
2009,05,28,01,19,9.40
2009,05,28,01,20,9.40
2009,05,28,01,21,9.40
2009,05,28,01,22,9.40
2009,05,28,01,23,9.40
2009,05,28,01,24,9.40
2009,05,28,01,25,9.40
2009,05,28,01,26,9.40
2009,05,28,01,27,9.40
2009,05,28,01,28,9.30
2009,05,28,01,29,9.30
2009,05,28,01,30,9.30
2009,05,28,01,31,9.30
2009,05,28,01,32,9.30
2009,05,28,01,33,9.20
2009,05,28,01,34,9.20
2009,05,28,01,35,9.20
2009,05,28,01,36,9.20
2009,05,28,01,37,9.20
2009,05,28,01,38,9.10
2009,05,28,01,39,9.10
2009,05,28,01,40,9.10
2009,05,28,01,41,9.10
2009,05,28,01,42,9.10
2009,05,28,01,43,9.00
2009,05,28,01,44,9.00
2009,05,28,01,45,9.00
2009,05,28,01,46,9.00
2009,05,28,01,47,8.90
2009,05,28,01,48,8.90
2009,05,28,01,49,8.90
2009,05,28,01,50,8.80
2009,05,28,01,51,8.80
2009,05,28,01,52,8.80
2009,05,28,01,53,8.80
2009,05,28,01,54,8.70
2009,05,28,01,55,8.70
2009,05,28,01,56,8.60
2009,05,28,01,57,8.60
2009,05,28,01,58,8.60
2009,05,28,01,59,8.60
2009,05,28,02,00,8.60
2009,05,28,02,01,8.50
2009,05,28,02,02,8.50
2009,05,28,02,03,8.60
2009,05,28,02,04,8.50
2009,05,28,02,05,8.50
2009,05,28,02,06,8.50
2009,05,28,02,07,8.50
2009,05,28,02,08,8.50
2009,05,28,02,09,8.60
2009,05,28,02,10,8.60
2009,05,28,02,11,8.50
2009,05,28,02,12,8.50
2009,05,28,02,13,8.50
2009,05,28,02,14,8.50
2009,05,28,02,15,8.60
2009,05,28,02,16,8.60
2009,05,28,02,17,8.60
2009,05,28,02,18,8.60
2009,05,28,02,19,8.70
2009,05,28,02,20,8.70
2009,05,28,02,21,8.80
2009,05,28,02,22,8.80
2009,05,28,02,23,8.80
2009,05,28,02,24,8.90
2009,05,28,02,25,8.90
2009,05,28,02,26,9.00
2009,05,28,02,27,9.00
2009,05,28,02,28,9.10
2009,05,28,02,29,9.10
2009,05,28,02,30,9.10
2009,05,28,02,31,9.20
2009,05,28,02,32,9.20
2009,05,28,02,33,9.20
2009,05,28,02,34,9.30
2009,05,28,02,35,9.30
2009,05,28,02,36,9.30
2009,05,28,02,37,9.30
2009,05,28,02,38,9.30
2009,05,28,02,39,9.30
2009,05,28,02,40,9.20
2009,05,28,02,41,9.20
2009,05,28,02,42,9.20
2009,05,28,02,43,9.10
2009,05,28,02,44,9.10
2009,05,28,02,45,9.00
2009,05,28,02,46,9.00
2009,05,28,02,47,8.90
2009,05,28,02,48,8.80
2009,05,28,02,49,8.80
2009,05,28,02,50,8.70
2009,05,28,02,51,8.70
2009,05,28,02,52,8.60
2009,05,28,02,53,8.60
2009,05,28,02,54,8.60
2009,05,28,02,55,8.50
2009,05,28,02,56,8.50
2009,05,28,02,57,8.50
2009,05,28,02,58,8.40
2009,05,28,02,59,8.40
2009,05,28,03,00,8.40
2009,05,28,03,01,8.40
2009,05,28,03,02,8.40
2009,05,28,03,03,8.40
2009,05,28,03,04,8.30
2009,05,28,03,05,8.30
2009,05,28,03,06,8.30
2009,05,28,03,07,8.30
2009,05,28,03,08,8.30
2009,05,28,03,09,8.30
2009,05,28,03,10,8.40
2009,05,28,03,11,8.40
2009,05,28,03,12,8.40
2009,05,28,03,13,8.50
2009,05,28,03,14,8.50
2009,05,28,03,15,8.60
2009,05,28,03,16,8.70
2009,05,28,03,17,8.70
2009,05,28,03,18,8.80
2009,05,28,03,19,8.80
2009,05,28,03,20,8.80
2009,05,28,03,21,8.80
2009,05,28,03,22,8.80
2009,05,28,03,23,8.80
2009,05,28,03,24,8.80
2009,05,28,03,25,8.80
2009,05,28,03,26,8.80
2009,05,28,03,27,8.80
2009,05,28,03,28,8.80
2009,05,28,03,29,8.80
2009,05,28,03,30,8.80
2009,05,28,03,31,8.90
2009,05,28,03,32,9.00
2009,05,28,03,33,9.10
2009,05,28,03,34,9.10
2009,05,28,03,35,9.10
2009,05,28,03,36,9.20
2009,05,28,03,37,9.20
2009,05,28,03,38,9.20
2009,05,28,03,39,9.20
2009,05,28,03,40,9.30
2009,05,28,03,41,9.30
2009,05,28,03,42,9.30
2009,05,28,03,43,9.30
2009,05,28,03,44,9.30
2009,05,28,03,45,9.30
2009,05,28,03,46,9.30
2009,05,28,03,47,9.30
2009,05,28,03,48,9.30
2009,05,28,03,49,9.20
2009,05,28,03,50,9.10
2009,05,28,03,51,9.00
2009,05,28,03,52,8.90
2009,05,28,03,53,8.80
2009,05,28,03,54,8.80
2009,05,28,03,55,8.70
2009,05,28,03,56,8.60
2009,05,28,03,57,8.60
2009,05,28,03,58,8.50
2009,05,28,03,59,8.40
2009,05,28,04,00,8.30
2009,05,28,04,01,8.30
2009,05,28,04,02,8.30
2009,05,28,04,03,8.20
2009,05,28,04,04,8.20
2009,05,28,04,05,8.20
2009,05,28,04,06,8.20
2009,05,28,04,07,8.10
2009,05,28,04,08,8.10
2009,05,28,04,09,8.10
2009,05,28,04,10,8.10
2009,05,28,04,11,8.10
2009,05,28,04,12,8.10
2009,05,28,04,13,8.10
2009,05,28,04,14,8.10
2009,05,28,04,15,8.10
2009,05,28,04,16,8.10
2009,05,28,04,17,8.10
2009,05,28,04,18,8.10
2009,05,28,04,19,8.10
2009,05,28,04,20,8.10
2009,05,28,04,21,8.10
2009,05,28,04,22,8.10
2009,05,28,04,23,8.10
2009,05,28,04,24,8.10
2009,05,28,04,25,8.20
2009,05,28,04,26,8.20
2009,05,28,04,27,8.20
2009,05,28,04,28,8.20
2009,05,28,04,29,8.20
2009,05,28,04,30,8.20
2009,05,28,04,31,8.30
2009,05,28,04,32,8.30
2009,05,28,04,33,8.30
2009,05,28,04,34,8.30
2009,05,28,04,35,8.30
2009,05,28,04,36,8.40
2009,05,28,04,37,8.40
2009,05,28,04,38,8.40
2009,05,28,04,39,8.40
2009,05,28,04,40,8.30
2009,05,28,04,41,8.30
2009,05,28,04,42,8.20
2009,05,28,04,43,8.20
2009,05,28,04,44,8.10
2009,05,28,04,45,8.00
2009,05,28,04,46,8.00
2009,05,28,04,47,7.90
2009,05,28,04,48,7.90
2009,05,28,04,49,7.80
2009,05,28,04,50,7.80
2009,05,28,04,51,7.70
2009,05,28,04,52,7.70
2009,05,28,04,53,7.60
2009,05,28,04,54,7.60
2009,05,28,04,55,7.70
2009,05,28,04,56,7.70
2009,05,28,04,57,7.70
2009,05,28,04,58,7.60
2009,05,28,04,59,7.60
2009,05,28,05,00,7.60
2009,05,28,05,01,7.60
2009,05,28,05,02,7.60
2009,05,28,05,03,7.70
2009,05,28,05,04,7.70
2009,05,28,05,05,7.80
2009,05,28,05,06,7.80
2009,05,28,05,07,7.90
2009,05,28,05,08,7.90
2009,05,28,05,09,8.00
2009,05,28,05,10,8.00
2009,05,28,05,11,8.10
2009,05,28,05,12,8.10
2009,05,28,05,13,8.10
2009,05,28,05,14,8.10
2009,05,28,05,15,8.10
2009,05,28,05,16,8.10
2009,05,28,05,17,8.10
2009,05,28,05,18,8.10
2009,05,28,05,19,8.00
2009,05,28,05,20,8.00
2009,05,28,05,21,8.00
2009,05,28,05,22,7.90
2009,05,28,05,23,7.90
2009,05,28,05,24,7.90
2009,05,28,05,25,7.90
2009,05,28,05,26,7.90
2009,05,28,05,27,7.90
2009,05,28,05,28,7.80
2009,05,28,05,29,7.80
2009,05,28,05,30,7.80
2009,05,28,05,31,7.70
2009,05,28,05,32,7.70
2009,05,28,05,33,7.70
2009,05,28,05,34,7.60
2009,05,28,05,35,7.60
2009,05,28,05,36,7.60
2009,05,28,05,37,7.60
2009,05,28,05,38,7.60
2009,05,28,05,39,7.50
2009,05,28,05,40,7.50
2009,05,28,05,41,7.50
2009,05,28,05,42,7.50
2009,05,28,05,43,7.40
2009,05,28,05,44,7.40
2009,05,28,05,45,7.40
2009,05,28,05,46,7.40
2009,05,28,05,47,7.40
2009,05,28,05,48,7.30
2009,05,28,05,49,7.30
2009,05,28,05,50,7.30
2009,05,28,05,51,7.30
2009,05,28,05,52,7.30
2009,05,28,05,53,7.30
2009,05,28,05,54,7.20
2009,05,28,05,55,7.20
2009,05,28,05,56,7.20
2009,05,28,05,57,7.20
2009,05,28,05,58,7.20
2009,05,28,05,59,7.20
2009,05,28,06,00,7.20
2009,05,28,06,01,7.20
2009,05,28,06,02,7.20
2009,05,28,06,03,7.20
2009,05,28,06,04,7.20
2009,05,28,06,05,7.10
2009,05,28,06,06,7.10
2009,05,28,06,07,7.10
2009,05,28,06,08,7.10
2009,05,28,06,09,7.10
2009,05,28,06,10,7.10
2009,05,28,06,11,7.10
2009,05,28,06,12,7.10
2009,05,28,06,13,7.10
2009,05,28,06,14,7.10
2009,05,28,06,15,7.10
2009,05,28,06,16,7.10
2009,05,28,06,17,7.10
2009,05,28,06,18,7.20
2009,05,28,06,19,7.20
2009,05,28,06,20,7.20
2009,05,28,06,21,7.20
2009,05,28,06,22,7.20
2009,05,28,06,23,7.20
2009,05,28,06,24,7.20
2009,05,28,06,25,7.30
2009,05,28,06,26,7.30
2009,05,28,06,27,7.30
2009,05,28,06,28,7.30
2009,05,28,06,29,7.30
2009,05,28,06,30,7.30
2009,05,28,06,31,7.30
2009,05,28,06,32,7.40
2009,05,28,06,33,7.40
2009,05,28,06,34,7.40
2009,05,28,06,35,7.50
2009,05,28,06,36,7.50
2009,05,28,06,37,7.50
2009,05,28,06,38,7.50
2009,05,28,06,39,7.50
2009,05,28,06,40,7.60
2009,05,28,06,41,7.60
2009,05,28,06,42,7.60
2009,05,28,06,43,7.60
2009,05,28,06,44,7.60
2009,05,28,06,45,7.60
2009,05,28,06,46,7.60
2009,05,28,06,47,7.60
2009,05,28,06,48,7.70
2009,05,28,06,49,7.70
2009,05,28,06,50,7.70
2009,05,28,06,51,7.70
2009,05,28,06,52,7.70
2009,05,28,06,53,7.70
2009,05,28,06,54,7.70
2009,05,28,06,55,7.70
2009,05,28,06,56,7.70
2009,05,28,06,57,7.80
2009,05,28,06,58,7.80
2009,05,28,06,59,7.80
2009,05,28,07,00,7.80
2009,05,28,07,01,7.80
2009,05,28,07,02,7.80
2009,05,28,07,03,7.80
2009,05,28,07,04,7.90
2009,05,28,07,05,7.90
2009,05,28,07,06,7.90
2009,05,28,07,07,7.90
2009,05,28,07,08,8.00
2009,05,28,07,09,8.00
2009,05,28,07,10,8.10
2009,05,28,07,11,8.10
2009,05,28,07,12,8.10
2009,05,28,07,13,8.20
2009,05,28,07,14,8.20
2009,05,28,07,15,8.30
2009,05,28,07,16,8.40
2009,05,28,07,17,8.50
2009,05,28,07,18,8.50
2009,05,28,07,19,8.60
2009,05,28,07,20,8.70
2009,05,28,07,21,8.80
2009,05,28,07,22,8.90
2009,05,28,07,23,9.00
2009,05,28,07,24,9.10
2009,05,28,07,25,9.20
2009,05,28,07,26,9.20
2009,05,28,07,27,9.30
2009,05,28,07,28,9.40
2009,05,28,07,29,9.50
2009,05,28,07,30,9.60
2009,05,28,07,31,9.60
2009,05,28,07,32,9.70
2009,05,28,07,33,9.80
2009,05,28,07,34,9.90
2009,05,28,07,35,9.90
2009,05,28,07,36,10.00
2009,05,28,07,37,10.10
2009,05,28,07,38,10.10
2009,05,28,07,39,10.20
2009,05,28,07,40,10.20
2009,05,28,07,41,10.30
2009,05,28,07,42,10.30
2009,05,28,07,43,10.40
2009,05,28,07,44,10.40
2009,05,28,07,45,10.50
2009,05,28,07,46,10.50
2009,05,28,07,47,10.60
2009,05,28,07,48,10.70
2009,05,28,07,49,10.80
2009,05,28,07,50,10.80
2009,05,28,07,51,10.90
2009,05,28,07,52,11.00
2009,05,28,07,53,11.10
2009,05,28,07,54,11.20
2009,05,28,07,55,11.20
2009,05,28,07,56,11.30
2009,05,28,07,57,11.40
2009,05,28,07,58,11.60
2009,05,28,07,59,11.70
2009,05,28,08,00,11.80
2009,05,28,08,01,11.90
2009,05,28,08,02,12.00
2009,05,28,08,03,12.10
2009,05,28,08,04,12.20
2009,05,28,08,05,12.30
2009,05,28,08,06,12.40
2009,05,28,08,07,12.50
2009,05,28,08,08,12.60
2009,05,28,08,09,12.70
2009,05,28,08,10,12.80
2009,05,28,08,11,12.90
2009,05,28,08,12,12.90
2009,05,28,08,13,13.00
2009,05,28,08,14,13.10
2009,05,28,08,15,13.20
2009,05,28,08,16,13.30
2009,05,28,08,17,13.30
2009,05,28,08,18,13.40
2009,05,28,08,19,13.40
2009,05,28,08,20,13.50
2009,05,28,08,21,13.50
2009,05,28,08,22,13.60
2009,05,28,08,23,13.60
2009,05,28,08,24,13.60
2009,05,28,08,25,13.70
2009,05,28,08,26,13.70
2009,05,28,08,27,13.80
2009,05,28,08,28,13.80
2009,05,28,08,29,13.90
2009,05,28,08,30,13.90
2009,05,28,08,31,13.90
2009,05,28,08,32,14.00
2009,05,28,08,33,14.00
2009,05,28,08,34,14.10
2009,05,28,08,35,14.10
2009,05,28,08,36,14.10
2009,05,28,08,37,14.20
2009,05,28,08,38,14.20
2009,05,28,08,39,14.30
2009,05,28,08,40,14.30
2009,05,28,08,41,14.40
2009,05,28,08,42,14.50
2009,05,28,08,43,14.50
2009,05,28,08,44,14.50
2009,05,28,08,45,14.50
2009,05,28,08,46,14.50
2009,05,28,08,47,14.50
2009,05,28,08,48,14.40
2009,05,28,08,49,14.40
2009,05,28,08,50,14.40
2009,05,28,08,51,14.40
2009,05,28,08,52,14.40
2009,05,28,08,53,14.40
2009,05,28,08,54,14.40
2009,05,28,08,55,14.50
2009,05,28,08,56,14.50
2009,05,28,08,57,14.60
2009,05,28,08,58,14.60
2009,05,28,08,59,14.70
2009,05,28,09,00,14.70
2009,05,28,09,01,14.80
2009,05,28,09,02,14.80
2009,05,28,09,03,14.80
2009,05,28,09,04,14.80
2009,05,28,09,05,14.90
2009,05,28,09,06,15.00
2009,05,28,09,07,15.00
2009,05,28,09,08,15.00
2009,05,28,09,09,15.00
2009,05,28,09,10,15.00
2009,05,28,09,11,15.00
2009,05,28,09,12,15.00
2009,05,28,09,13,15.00
2009,05,28,09,14,15.00
2009,05,28,09,15,15.10
2009,05,28,09,16,15.20
2009,05,28,09,17,15.30
2009,05,28,09,18,15.40
2009,05,28,09,19,15.40
2009,05,28,09,20,15.50
2009,05,28,09,21,15.60
2009,05,28,09,22,15.60
2009,05,28,09,23,15.60
2009,05,28,09,24,15.70
2009,05,28,09,25,15.70
2009,05,28,09,26,15.80
2009,05,28,09,27,15.80
2009,05,28,09,28,15.90
2009,05,28,09,29,15.90
2009,05,28,09,30,16.00
2009,05,28,09,31,16.00
2009,05,28,09,32,16.10
2009,05,28,09,33,16.10
2009,05,28,09,34,16.20
2009,05,28,09,35,16.20
2009,05,28,09,36,16.30
2009,05,28,09,37,16.40
2009,05,28,09,38,16.40
2009,05,28,09,39,16.50
2009,05,28,09,40,16.60
2009,05,28,09,41,16.60
2009,05,28,09,42,16.70
2009,05,28,09,43,16.70
2009,05,28,09,44,16.70
2009,05,28,09,45,16.60
2009,05,28,09,46,16.50
2009,05,28,09,47,16.50
2009,05,28,09,48,16.40
2009,05,28,09,49,16.40
2009,05,28,09,50,16.40
2009,05,28,09,51,16.50
2009,05,28,09,52,16.50
2009,05,28,09,53,16.60
2009,05,28,09,54,16.60
2009,05,28,09,55,16.60
2009,05,28,09,56,16.70
2009,05,28,09,57,16.70
2009,05,28,09,58,16.70
2009,05,28,09,59,16.80
2009,05,28,10,00,16.80
2009,05,28,10,01,16.80
2009,05,28,10,02,16.80
2009,05,28,10,03,16.90
2009,05,28,10,04,17.00
2009,05,28,10,05,17.00
2009,05,28,10,06,17.10
2009,05,28,10,07,17.00
2009,05,28,10,08,16.90
2009,05,28,10,09,16.90
2009,05,28,10,10,16.90
2009,05,28,10,11,16.90
2009,05,28,10,12,16.90
2009,05,28,10,13,17.00
2009,05,28,10,14,17.10
2009,05,28,10,15,17.20
2009,05,28,10,16,17.10
2009,05,28,10,17,17.00
2009,05,28,10,18,16.90
2009,05,28,10,19,16.90
2009,05,28,10,20,16.90
2009,05,28,10,21,16.80
2009,05,28,10,22,16.80
2009,05,28,10,23,16.70
2009,05,28,10,24,16.70
2009,05,28,10,25,16.70
2009,05,28,10,26,16.80
2009,05,28,10,27,16.80
2009,05,28,10,28,17.00
2009,05,28,10,29,17.10
2009,05,28,10,30,17.20
2009,05,28,10,31,17.20
2009,05,28,10,32,17.30
2009,05,28,10,33,17.30
2009,05,28,10,34,17.20
2009,05,28,10,35,17.20
2009,05,28,10,36,17.20
2009,05,28,10,37,17.30
2009,05,28,10,38,17.30
2009,05,28,10,39,17.40
2009,05,28,10,40,17.40
2009,05,28,10,41,17.50
2009,05,28,10,42,17.50
2009,05,28,10,43,17.60
2009,05,28,10,44,17.60
2009,05,28,10,45,17.70
2009,05,28,10,46,17.70
2009,05,28,10,47,17.70
2009,05,28,10,48,17.80
2009,05,28,10,49,17.80
2009,05,28,10,50,17.70
2009,05,28,10,51,17.70
2009,05,28,10,52,17.70
2009,05,28,10,53,17.70
2009,05,28,10,54,17.80
2009,05,28,10,55,17.80
2009,05,28,10,56,17.80
2009,05,28,10,57,17.80
2009,05,28,10,58,17.90
2009,05,28,10,59,17.90
2009,05,28,11,00,17.90
2009,05,28,11,01,17.90
2009,05,28,11,02,17.90
2009,05,28,11,03,17.90
2009,05,28,11,04,17.90
2009,05,28,11,05,17.80
2009,05,28,11,06,17.80
2009,05,28,11,07,17.70
2009,05,28,11,08,17.70
2009,05,28,11,09,17.70
2009,05,28,11,10,17.70
2009,05,28,11,11,17.60
2009,05,28,11,12,17.50
2009,05,28,11,13,17.40
2009,05,28,11,14,17.40
2009,05,28,11,15,17.40
2009,05,28,11,16,17.40
2009,05,28,11,17,17.60
2009,05,28,11,18,17.70
2009,05,28,11,19,17.70
2009,05,28,11,20,17.80
2009,05,28,11,21,17.80
2009,05,28,11,22,17.80
2009,05,28,11,23,17.80
2009,05,28,11,24,17.80
2009,05,28,11,25,17.90
2009,05,28,11,26,18.00
2009,05,28,11,27,18.00
2009,05,28,11,28,18.00
2009,05,28,11,29,18.00
2009,05,28,11,30,18.00
2009,05,28,11,31,18.10
2009,05,28,11,32,18.20
2009,05,28,11,33,18.30
2009,05,28,11,34,18.30
2009,05,28,11,35,18.30
2009,05,28,11,36,18.30
2009,05,28,11,37,18.20
2009,05,28,11,38,18.20
2009,05,28,11,39,18.20
2009,05,28,11,40,18.30
2009,05,28,11,41,18.30
2009,05,28,11,42,18.30
2009,05,28,11,43,18.20
2009,05,28,11,44,18.10
2009,05,28,11,45,18.10
2009,05,28,11,46,18.10
2009,05,28,11,47,18.10
2009,05,28,11,48,18.10
2009,05,28,11,49,18.20
2009,05,28,11,50,18.20
2009,05,28,11,51,18.30
2009,05,28,11,52,18.30
2009,05,28,11,53,18.30
2009,05,28,11,54,18.30
2009,05,28,11,55,18.30
2009,05,28,11,56,18.40
2009,05,28,11,57,18.40
2009,05,28,11,58,18.40
2009,05,28,11,59,18.40
2009,05,28,12,00,18.40
2009,05,28,12,01,18.30
2009,05,28,12,02,18.10
2009,05,28,12,03,18.00
2009,05,28,12,04,18.00
2009,05,28,12,05,17.90
2009,05,28,12,06,17.90
2009,05,28,12,07,17.90
2009,05,28,12,08,17.90
2009,05,28,12,09,17.90
2009,05,28,12,10,18.00
2009,05,28,12,11,18.10
2009,05,28,12,12,18.20
2009,05,28,12,13,18.20
2009,05,28,12,14,18.30
2009,05,28,12,15,18.20
2009,05,28,12,16,18.20
2009,05,28,12,17,18.20
2009,05,28,12,18,18.20
2009,05,28,12,19,18.20
2009,05,28,12,20,18.30
2009,05,28,12,21,18.30
2009,05,28,12,22,18.30
2009,05,28,12,23,18.40
2009,05,28,12,24,18.50
2009,05,28,12,25,18.60
2009,05,28,12,26,18.60
2009,05,28,12,27,18.70
2009,05,28,12,28,18.70
2009,05,28,12,29,18.70
2009,05,28,12,30,18.80
2009,05,28,12,31,18.80
2009,05,28,12,32,18.80
2009,05,28,12,33,18.90
2009,05,28,12,34,18.90
2009,05,28,12,35,18.90
2009,05,28,12,36,18.90
2009,05,28,12,37,19.00
2009,05,28,12,38,19.10
2009,05,28,12,39,19.10
2009,05,28,12,40,19.00
2009,05,28,12,41,19.00
2009,05,28,12,42,18.90
2009,05,28,12,43,18.90
2009,05,28,12,44,18.90
2009,05,28,12,45,18.90
2009,05,28,12,46,18.90
2009,05,28,12,47,18.80
2009,05,28,12,48,18.90
2009,05,28,12,49,18.90
2009,05,28,12,50,18.90
2009,05,28,12,51,18.90
2009,05,28,12,52,19.00
2009,05,28,12,53,19.00
2009,05,28,12,54,19.00
2009,05,28,12,55,19.10
2009,05,28,12,56,19.10
2009,05,28,12,57,19.10
2009,05,28,12,58,19.10
2009,05,28,12,59,19.10
2009,05,28,13,00,19.20
2009,05,28,13,01,19.30
2009,05,28,13,02,19.40
2009,05,28,13,03,19.50
2009,05,28,13,04,19.50
2009,05,28,13,05,19.60
2009,05,28,13,06,19.60
2009,05,28,13,07,19.60
2009,05,28,13,08,19.70
2009,05,28,13,09,19.60
2009,05,28,13,10,19.60
2009,05,28,13,11,19.50
2009,05,28,13,12,19.30
2009,05,28,13,13,19.20
2009,05,28,13,14,19.20
2009,05,28,13,15,19.20
2009,05,28,13,16,19.10
2009,05,28,13,17,19.10
2009,05,28,13,18,19.00
2009,05,28,13,19,18.90
2009,05,28,13,20,18.80
2009,05,28,13,21,18.70
2009,05,28,13,22,18.60
2009,05,28,13,23,18.70
2009,05,28,13,24,18.70
2009,05,28,13,25,18.70
2009,05,28,13,26,18.80
2009,05,28,13,27,18.90
2009,05,28,13,28,18.90
2009,05,28,13,29,19.00
2009,05,28,13,30,19.10
2009,05,28,13,31,19.20
2009,05,28,13,32,19.20
2009,05,28,13,33,19.20
2009,05,28,13,34,19.20
2009,05,28,13,35,19.20
2009,05,28,13,36,19.20
2009,05,28,13,37,19.30
2009,05,28,13,38,19.40
2009,05,28,13,39,19.50
2009,05,28,13,40,19.60
2009,05,28,13,41,19.60
2009,05,28,13,42,19.60
2009,05,28,13,43,19.60
2009,05,28,13,44,19.60
2009,05,28,13,45,19.70
2009,05,28,13,46,19.70
2009,05,28,13,47,19.70
2009,05,28,13,48,19.60
2009,05,28,13,49,19.60
2009,05,28,13,50,19.60
2009,05,28,13,51,19.70
2009,05,28,13,52,19.80
2009,05,28,13,53,19.80
2009,05,28,13,54,19.80
2009,05,28,13,55,19.80
2009,05,28,13,56,19.80
2009,05,28,13,57,19.80
2009,05,28,13,58,19.80
2009,05,28,13,59,19.80
2009,05,28,14,00,19.80
2009,05,28,14,01,19.80
2009,05,28,14,02,19.80
2009,05,28,14,03,19.70
2009,05,28,14,04,19.60
2009,05,28,14,05,19.50
2009,05,28,14,06,19.50
2009,05,28,14,07,19.60
2009,05,28,14,08,19.70
2009,05,28,14,09,19.80
2009,05,28,14,10,19.70
2009,05,28,14,11,19.70
2009,05,28,14,12,19.70
2009,05,28,14,13,19.70
2009,05,28,14,14,19.70
2009,05,28,14,15,19.70
2009,05,28,14,16,19.70
2009,05,28,14,17,19.80
2009,05,28,14,18,19.80
2009,05,28,14,19,20.00
2009,05,28,14,20,20.00
2009,05,28,14,21,19.90
2009,05,28,14,22,20.00
2009,05,28,14,23,20.00
2009,05,28,14,24,20.10
2009,05,28,14,25,20.20
2009,05,28,14,26,20.20
2009,05,28,14,27,20.20
2009,05,28,14,28,20.20
2009,05,28,14,29,20.20
2009,05,28,14,30,20.10
2009,05,28,14,31,20.10
2009,05,28,14,32,20.10
2009,05,28,14,33,20.20
2009,05,28,14,34,20.20
2009,05,28,14,35,20.30
2009,05,28,14,36,20.40
2009,05,28,14,37,20.40
2009,05,28,14,38,20.40
2009,05,28,14,39,20.50
2009,05,28,14,40,20.60
2009,05,28,14,41,20.60
2009,05,28,14,42,20.50
2009,05,28,14,43,20.50
2009,05,28,14,44,20.60
2009,05,28,14,45,20.60
2009,05,28,14,46,20.50
2009,05,28,14,47,20.50
2009,05,28,14,48,20.50
2009,05,28,14,49,20.50
2009,05,28,14,50,20.50
2009,05,28,14,51,20.50
2009,05,28,14,52,20.60
2009,05,28,14,53,20.70
2009,05,28,14,54,20.70
2009,05,28,14,55,20.70
2009,05,28,14,56,20.60
2009,05,28,14,57,20.60
2009,05,28,14,58,20.60
2009,05,28,14,59,20.60
2009,05,28,15,00,20.60
2009,05,28,15,01,20.60
2009,05,28,15,02,20.50
2009,05,28,15,03,20.50
2009,05,28,15,04,20.40
2009,05,28,15,05,20.40
2009,05,28,15,06,20.50
2009,05,28,15,07,20.60
2009,05,28,15,08,20.60
2009,05,28,15,09,20.70
2009,05,28,15,10,20.80
2009,05,28,15,11,20.90
2009,05,28,15,12,21.10
2009,05,28,15,13,21.20
2009,05,28,15,14,21.30
2009,05,28,15,15,21.50
2009,05,28,15,16,21.50
2009,05,28,15,17,21.50
2009,05,28,15,18,21.50
2009,05,28,15,19,21.50
2009,05,28,15,20,21.40
2009,05,28,15,21,21.30
2009,05,28,15,22,21.40
2009,05,28,15,23,21.40
2009,05,28,15,24,21.40
2009,05,28,15,25,21.30
2009,05,28,15,26,21.30
2009,05,28,15,27,21.30
2009,05,28,15,28,21.20
2009,05,28,15,29,21.20
2009,05,28,15,30,21.20
2009,05,28,15,31,21.20
2009,05,28,15,32,21.10
2009,05,28,15,33,21.00
2009,05,28,15,34,21.00
2009,05,28,15,35,20.90
2009,05,28,15,36,20.90
2009,05,28,15,37,20.90
2009,05,28,15,38,20.80
2009,05,28,15,39,20.80
2009,05,28,15,40,20.90
2009,05,28,15,41,21.10
2009,05,28,15,42,21.20
2009,05,28,15,43,21.30
2009,05,28,15,44,21.40
2009,05,28,15,45,21.40
2009,05,28,15,46,21.40
2009,05,28,15,47,21.40
2009,05,28,15,48,21.40
2009,05,28,15,49,21.40
2009,05,28,15,50,21.40
2009,05,28,15,51,21.40
2009,05,28,15,52,21.50
2009,05,28,15,53,21.50
2009,05,28,15,54,21.50
2009,05,28,15,55,21.40
2009,05,28,15,56,21.40
2009,05,28,15,57,21.30
2009,05,28,15,58,21.20
2009,05,28,15,59,21.20
2009,05,28,16,00,21.20
2009,05,28,16,01,21.40
2009,05,28,16,02,21.50
2009,05,28,16,03,21.60
2009,05,28,16,04,21.60
2009,05,28,16,05,21.60
2009,05,28,16,06,21.60
2009,05,28,16,07,21.50
2009,05,28,16,08,21.50
2009,05,28,16,09,21.40
2009,05,28,16,10,21.50
2009,05,28,16,11,21.60
2009,05,28,16,12,21.60
2009,05,28,16,13,21.70
2009,05,28,16,14,21.80
2009,05,28,16,15,21.90
2009,05,28,16,16,22.00
2009,05,28,16,17,21.90
2009,05,28,16,18,21.90
2009,05,28,16,19,21.90
2009,05,28,16,20,22.00
2009,05,28,16,21,22.10
2009,05,28,16,22,22.10
2009,05,28,16,23,22.20
2009,05,28,16,24,22.10
2009,05,28,16,25,22.00
2009,05,28,16,26,22.00
2009,05,28,16,27,22.00
2009,05,28,16,28,22.00
2009,05,28,16,29,22.00
2009,05,28,16,30,22.10
2009,05,28,16,31,22.20
2009,05,28,16,32,22.20
2009,05,28,16,33,22.30
2009,05,28,16,34,22.40
2009,05,28,16,35,22.50
2009,05,28,16,36,22.50
2009,05,28,16,37,22.50
2009,05,28,16,38,22.40
2009,05,28,16,39,22.30
2009,05,28,16,40,22.20
2009,05,28,16,41,22.10
2009,05,28,16,42,22.00
2009,05,28,16,43,22.00
2009,05,28,16,44,22.00
2009,05,28,16,45,22.10
2009,05,28,16,46,22.10
2009,05,28,16,47,22.20
2009,05,28,16,48,22.30
2009,05,28,16,49,22.30
2009,05,28,16,50,22.40
2009,05,28,16,51,22.40
2009,05,28,16,52,22.60
2009,05,28,16,53,22.70
2009,05,28,16,54,22.70
2009,05,28,16,55,22.70
2009,05,28,16,56,22.70
2009,05,28,16,57,22.70
2009,05,28,16,58,22.70
2009,05,28,16,59,22.70
2009,05,28,17,00,22.60
2009,05,28,17,01,22.60
2009,05,28,17,02,22.70
2009,05,28,17,03,22.60
2009,05,28,17,04,22.70
2009,05,28,17,05,22.70
2009,05,28,17,06,22.70
2009,05,28,17,07,22.70
2009,05,28,17,08,22.70
2009,05,28,17,09,22.60
2009,05,28,17,10,22.70
2009,05,28,17,11,22.70
2009,05,28,17,12,22.80
2009,05,28,17,13,22.90
2009,05,28,17,14,22.90
2009,05,28,17,15,22.70
2009,05,28,17,16,22.70
2009,05,28,17,17,22.60
2009,05,28,17,18,22.60
2009,05,28,17,19,22.60
2009,05,28,17,20,22.60
2009,05,28,17,21,22.70
2009,05,28,17,22,22.70
2009,05,28,17,23,22.80
2009,05,28,17,24,22.80
2009,05,28,17,25,22.90
2009,05,28,17,26,22.90
2009,05,28,17,27,23.00
2009,05,28,17,28,22.90
2009,05,28,17,29,22.90
2009,05,28,17,30,22.80
2009,05,28,17,31,22.80
2009,05,28,17,32,22.80
2009,05,28,17,33,22.80
2009,05,28,17,34,22.90
2009,05,28,17,35,22.90
2009,05,28,17,36,22.80
2009,05,28,17,37,22.80
2009,05,28,17,38,22.80